This is the latest recevied weather packets stored in our database for station/object N4QB-13. If no packets are shown the sender has not sent any weather packets the latest 10 day(s).
| Time | Temp. | Humidity | Pressure | Rain* | Wind** | Luminosity | Snow |
|---|---|---|---|---|---|---|---|
| 1777680536 | 17.78° C | 95% | 1009.5 hPa | 0 mm | - | 1 W/m² | - |
| 1777680235 | 17.78° C | 95% | 1009.4 hPa | 0 mm | - | 1 W/m² | - |
| 1777679929 | 17.78° C | 94% | 1009.3 hPa | 0 mm | - | 2 W/m² | - |
| 1777679625 | 17.78° C | 94% | 1009.2 hPa | 0 mm | - | 3 W/m² | - |
| 1777679127 | 17.78° C | 93% | 1008.7 hPa | 0 mm | - | 6 W/m² | - |
| 1777678826 | 17.78° C | 93% | 1008.7 hPa | 0 mm | - | 6 W/m² | - |
| 1777678523 | 17.78° C | 93% | 1008.8 hPa | 0 mm | - | 7 W/m² | - |
| 1777678220 | 17.78° C | 93% | 1008.7 hPa | 0 mm | - | 9 W/m² | - |
| 1777677916 | 17.78° C | 93% | 1008.8 hPa | 0 mm | - | 10 W/m² | - |
| 1777677614 | 17.78° C | 92% | 1008.8 hPa | 1.78 mm | - | 14 W/m² | - |
| 1777677312 | 17.78° C | 92% | 1009.1 hPa | 1.78 mm | - | 14 W/m² | - |
| 1777677010 | 17.78° C | 92% | 1009.3 hPa | 0 mm | - | 12 W/m² | - |
| 1777676708 | 17.78° C | 91% | 1009.8 hPa | 1.27 mm | - | 8 W/m² | - |
| 1777676405 | 17.78° C | 91% | 1009.9 hPa | 1.27 mm | - | 8 W/m² | - |
| 1777676103 | 18.33° C | 90% | 1010 hPa | 1.78 mm | - | 8 W/m² | - |
| 1777675798 | 18.33° C | 90% | 1009.6 hPa | 3.56 mm | - | 7 W/m² | - |
| 1777675497 | 18.33° C | 89% | 1009.9 hPa | 3.05 mm | - | 9 W/m² | - |
| 1777675193 | 18.33° C | 89% | 1009.5 hPa | 4.32 mm | - | 12 W/m² | - |
| 1777674889 | 18.33° C | 88% | 1009.6 hPa | 4.32 mm | - | 8 W/m² | - |
| 1777674585 | 18.33° C | 87% | 1009.7 hPa | 4.32 mm | - | 11 W/m² | - |
| 1777674284 | 18.89° C | 86% | 1009.6 hPa | 3.05 mm | - | 13 W/m² | - |
| 1777673979 | 18.89° C | 85% | 1009.5 hPa | 0 mm | - | 13 W/m² | - |
| 1777673676 | 18.89° C | 84% | 1009.4 hPa | 1.78 mm | - | 9 W/m² | - |
| 1777673374 | 18.89° C | 83% | 1009.6 hPa | 3.05 mm | - | 11 W/m² | - |
| 1777673071 | 18.89° C | 82% | 1009 hPa | 3.05 mm | - | 12 W/m² | - |
* Rain latest hour (hover to see other rain measurements)
** Current wind speed in m/s (hover to see current wind gust speed)